Weather reports worldwide

Advertisment
Messina, Italy (16420): temperature & dewpoint: 25.09.2020 00:00:00 - 01.10.2020 00:00:00 (CEST)Messina, Italy (16420): wind speed: 25.09.2020 00:00:00 - 01.10.2020 00:00:00 (CEST)Messina, Italy (16420): wind direction: 25.09.2020 00:00:00 - 01.10.2020 00:00:00 (CEST)Messina, Italy (16420): reduced air pressure: 25.09.2020 00:00:00 - 01.10.2020 00:00:00 (CEST)Messina, Italy (16420): visibility: 25.09.2020 00:00:00 - 01.10.2020 00:00:00 (CEST)Messina, Italy (16420): sunshine duration: 25.09.2020 00:00:00 - 01.10.2020 00:00:00 (CEST)
Date & Time tt [°C] td [°C] ff [km/h] ff [kn] dd ppp [hPa] vv [km] sd [min]
01.10.2020 00:00:00 19,6 14,8 4 2 NNE 1012,9 20 -
30.09.2020 23:00:00 19,6 15,0 4 2 NW 1012,9 20 -
30.09.2020 22:00:00 19,8 15,0 5 3 NW 1012,8 20 -
30.09.2020 21:00:00 20,0 14,8 5 3 NNW 1012,8 20 -
30.09.2020 20:00:00 20,8 14,5 4 2 NW 1012,6 20 -
30.09.2020 19:00:00 21,4 13,6 4 2 N 1012,9 20 0
30.09.2020 18:00:00 22,6 12,8 8 4 NE 1013,0 20 36
30.09.2020 17:00:00 23,8 11,8 5 3 NW 1013,3 20 60
30.09.2020 16:00:00 24,4 11,4 8 4 N 1013,6 20 60
30.09.2020 15:00:00 24,0 12,3 5 3 NNW 1013,7 20 60
30.09.2020 14:00:00 24,2 13,4 9 5 NW 1014,6 20 60
30.09.2020 13:00:00 23,8 13,1 9 5 NNW 1014,7 18 60
30.09.2020 12:00:00 23,4 13,0 8 4 NW 1015,1 16 48
30.09.2020 11:00:00 22,6 13,1 8 4 NNW 1015,3 14 36
30.09.2020 10:00:00 22,0 15,1 8 4 ENE 1015,3 14 30
30.09.2020 09:00:00 21,4 15,0 4 2 WNW 1015,2 14 60
30.09.2020 08:00:00 19,0 15,5 4 2 NNW 1015,4 14 0
30.09.2020 07:00:00 18,8 15,3 4 2 NW 1015,4 14 0
30.09.2020 06:00:00 19,0 14,7 8 4 WNW 1015,4 14 -
30.09.2020 05:00:00 19,2 14,7 8 4 NW 1015,6 14 -
30.09.2020 04:00:00 19,0 14,5 8 4 NW 1016,4 14 -
30.09.2020 03:00:00 19,2 14,5 9 5 WNW 1016,4 14 -
30.09.2020 02:00:00 19,2 14,2 8 4 WNW 1016,4 14 -
30.09.2020 01:00:00 19,0 14,1 8 4 WNW 1017,2 14 -
30.09.2020 00:00:00 19,0 14,5 5 3 NW 1017,4 14 -
29.09.2020 23:00:00 19,0 14,5 5 3 NNW 1017,4 14 -
29.09.2020 22:00:00 19,6 14,4 8 4 NNW 1017,4 14 -
29.09.2020 21:00:00 19,8 14,8 5 3 N 1017,4 14 -
29.09.2020 20:00:00 19,8 14,2 5 3 N 1016,4 20 -
29.09.2020 19:00:00 20,0 15,7 4 2 N 1017,4 20 0
29.09.2020 18:00:00 20,0 15,4 8 4 NNW 1017,4 18 0
29.09.2020 17:00:00 20,2 15,8 5 3 N 1017,3 12 0
29.09.2020 16:00:00 20,6 15,6 4 2 N 1017,3 12 0
29.09.2020 15:00:00 21,0 16,6 16 9 WNW 1017,6 12 0
29.09.2020 14:00:00 20,4 16,8 8 4 NW 1018,0 15 0
29.09.2020 13:00:00 21,8 13,2 11 6 ENE 1018,1 18 0
29.09.2020 12:00:00 20,4 14,3 8 4 ENE 1018,1 18 0
29.09.2020 11:00:00 19,4 14,2 4 2 E 1018,1 18 6
29.09.2020 10:00:00 19,0 15,7 4 2 NNE 1017,4 18 0
29.09.2020 09:00:00 19,2 14,0 4 2 NW 1017,2 20 12
29.09.2020 08:00:00 18,0 15,4 5 3 N 1016,8 16 0
29.09.2020 07:00:00 17,8 15,2 4 2 N 1016,3 4,0 -
29.09.2020 06:00:00 19,8 13,0 4 2 W 1015,8 12 -
29.09.2020 05:00:00 19,0 15,3 4 2 WSW 1015,8 16 -
29.09.2020 04:00:00 20,6 7,9 11 6 W 1015,8 20 -
29.09.2020 03:00:00 20,2 7,9 5 3 WSW 1015,8 20 -
29.09.2020 02:00:00 19,8 8,2 4 2 N 1016,1 20 -
29.09.2020 01:00:00 20,0 8,7 0 0 N 1016,1 20 -
29.09.2020 00:00:00 20,0 9,9 5 3 W 1016,0 20 -
28.09.2020 23:00:00 20,4 11,1 5 3 WSW 1015,7 20 -
28.09.2020 22:00:00 21,0 10,8 2 1 WSW 1015,5 20 -
28.09.2020 21:00:00 21,6 11,6 5 3 WSW 1014,7 16 -
28.09.2020 20:00:00 21,6 12,5 15 8 WNW 1014,5 14 -
28.09.2020 19:00:00 22,0 12,5 9 5 WNW 1014,3 20 0
28.09.2020 18:00:00 22,8 8,5 11 6 WNW 1014,3 20 0
28.09.2020 17:00:00 23,0 8,3 13 7 NW 1014,3 20 42
28.09.2020 16:00:00 24,0 6,8 13 7 N 1014,4 20 48
28.09.2020 15:00:00 24,0 5,8 11 6 WNW 1014,4 20 60
28.09.2020 14:00:00 23,2 4,7 15 8 WNW 1014,5 20 60
28.09.2020 13:00:00 23,4 3,4 18 10 NW 1014,3 20 60
28.09.2020 12:00:00 23,6 3,0 13 7 NW 1014,0 20 60
28.09.2020 11:00:00 23,4 3,9 9 5 E 1014,4 20 60
28.09.2020 10:00:00 22,8 4,8 4 2 N 1013,3 20 60
28.09.2020 09:00:00 21,6 8,5 4 2 N 1013,1 20 60
28.09.2020 08:00:00 19,6 7,7 5 3 NE 1012,3 20 12
28.09.2020 07:00:00 19,0 9,2 4 2 NE 1011,5 20 -
28.09.2020 06:00:00 19,2 8,8 2 1 ENE 1010,8 10 -
28.09.2020 05:00:00 19,6 9,2 2 1 WSW 1010,8 10 -
28.09.2020 04:00:00 20,0 9,9 4 2 W 1010,7 10 -
28.09.2020 03:00:00 20,2 8,5 11 6 WNW 1010,7 10 -
28.09.2020 02:00:00 20,4 6,4 11 6 SSW 1010,3 10 -
28.09.2020 01:00:00 20,2 12,7 5 3 NNW 1010,1 10 -
28.09.2020 00:00:00 20,2 16,4 4 2 N 1009,5 10 -
27.09.2020 23:00:00 20,4 17,6 2 1 NNW 1009,4 10 -
27.09.2020 22:00:00 20,4 16,8 4 2 NNE 1009,4 10 -
27.09.2020 21:00:00 21,6 15,0 15 8 SW 1008,6 10 -
27.09.2020 20:00:00 21,4 19,3 29 16 SSW 1008,0 8 -
27.09.2020 19:00:00 23,4 16,0 29 16 S 1006,4 16 0
27.09.2020 18:00:00 23,6 14,6 29 16 SSW 1007,2 20 30
27.09.2020 17:00:00 25,0 12,6 26 14 S 1007,3 20 60
27.09.2020 16:00:00 25,0 13,9 22 12 SSW 1008,2 20 60
27.09.2020 15:00:00 24,0 13,8 22 12 S 1009,1 20 60
27.09.2020 14:00:00 24,4 10,7 18 10 SSW 1009,5 20 60
27.09.2020 13:00:00 24,2 9,0 21 11 S 1009,7 20 60
27.09.2020 12:00:00 23,2 8,1 22 12 SSW 1010,2 20 60
27.09.2020 11:00:00 22,4 8,9 18 10 SSW 1010,1 20 60
27.09.2020 10:00:00 22,6 7,6 15 8 SSW 1009,9 20 60
27.09.2020 09:00:00 20,0 12,2 2 1 S 1009,7 20 60
27.09.2020 08:00:00 18,0 9,9 4 2 SW 1009,1 20 6
27.09.2020 07:00:00 18,4 11,2 8 4 NNW 1008,9 20 -
27.09.2020 06:00:00 19,2 5,3 4 2 SW 1008,7 18 -
27.09.2020 05:00:00 19,0 4,4 11 6 SW 1008,7 16 -
27.09.2020 04:00:00 18,6 8,3 4 2 SW 1008,8 14 -
27.09.2020 03:00:00 17,2 12,5 4 2 SSE 1008,9 12 -
27.09.2020 02:00:00 17,0 14,3 4 2 NNW 1008,9 12 -
27.09.2020 01:00:00 17,4 13,7 5 3 NW 1009,0 8 -
27.09.2020 00:00:00 18,6 14,5 4 2 ENE 1008,6 12 -
26.09.2020 23:00:00 18,4 14,3 4 2 NW 1008,5 8 -
26.09.2020 22:00:00 20,0 6,7 9 5 SSW 1008,0 12 -
26.09.2020 21:00:00 21,0 5,8 16 9 W 1007,3 12 -
26.09.2020 20:00:00 21,0 5,8 9 5 W 1006,4 12 -
26.09.2020 19:00:00 21,0 5,8 15 8 WNW 1006,2 16 0
26.09.2020 18:00:00 20,8 6,0 22 12 NW 1005,8 16 0
26.09.2020 17:00:00 21,6 4,7 22 12 WNW 1005,1 16 0
26.09.2020 16:00:00 22,0 7,0 31 17 WNW 1004,6 16 60
26.09.2020 15:00:00 21,4 8,3 26 14 W 1004,5 14 60
26.09.2020 14:00:00 18,8 11,4 37 20 W 1004,8 10 48
26.09.2020 13:00:00 22,6 5,5 29 16 W 1004,5 16 60
26.09.2020 12:00:00 20,6 7,6 34 18 SSW 1004,2 16 60
26.09.2020 11:00:00 20,4 10,2 15 8 SW 1004,5 20 60
26.09.2020 10:00:00 19,8 10,0 18 10 WSW 1004,2 16 30
26.09.2020 09:00:00 18,4 11,0 11 6 WNW 1004,3 8 6
26.09.2020 08:00:00 18,4 11,7 11 6 NE 1003,7 14 6
26.09.2020 07:00:00 18,6 12,8 21 11 SSW 1003,4 14 -
26.09.2020 06:00:00 21,8 10,6 16 9 WSW 1003,3 14 -
26.09.2020 05:00:00 21,8 8,3 22 12 WNW 1004,5 12 -
26.09.2020 04:00:00 22,2 8,7 9 5 N 1005,2 12 -
26.09.2020 03:00:00 23,0 8,3 21 11 WNW 1005,3 12 -
26.09.2020 02:00:00 23,2 11,3 16 9 WNW 1005,5 12 -
26.09.2020 01:00:00 24,0 16,0 22 12 WNW 1006,1 12 -
26.09.2020 00:00:00 24,0 18,0 18 10 W 1006,4 12 -
25.09.2020 23:00:00 24,4 15,6 16 9 W 1006,4 15 -
25.09.2020 22:00:00 27,2 14,9 5 3 NE 1005,7 18 -
25.09.2020 21:00:00 28,8 14,6 18 10 WNW 1005,7 18 -
25.09.2020 20:00:00 26,8 22,4 8 4 SSE 1005,8 20 -
25.09.2020 19:00:00 27,4 20,5 4 2 N 1006,1 20 0
25.09.2020 18:00:00 28,4 19,1 8 4 SSW 1006,1 20 30
25.09.2020 17:00:00 28,4 20,4 11 6 SSW 1007,2 20 60
25.09.2020 16:00:00 28,0 19,5 13 7 SSW 1007,3 20 42
25.09.2020 15:00:00 29,6 16,8 13 7 S 1007,3 20 60
25.09.2020 14:00:00 28,8 14,6 9 5 SSW 1008,4 20 60
25.09.2020 13:00:00 28,6 17,2 8 4 SW 1009,4 20 60
25.09.2020 12:00:00 28,0 17,2 5 3 S 1010,0 18 60
25.09.2020 11:00:00 28,0 18,1 5 3 S 1010,4 18 60
25.09.2020 10:00:00 26,8 19,7 8 4 SSE 1010,8 18 60
25.09.2020 09:00:00 25,0 18,5 8 4 S 1011,2 18 60
25.09.2020 08:00:00 23,6 13,5 5 3 SSW 1011,3 20 0
25.09.2020 07:00:00 22,2 13,0 0 0 N 1011,3 20 -
25.09.2020 06:00:00 22,0 13,4 0 0 N 1012,3 15 -
25.09.2020 05:00:00 22,0 13,9 5 3 WSW 1012,5 15 -
25.09.2020 04:00:00 22,2 15,3 4 2 WSW 1013,3 15 -
25.09.2020 03:00:00 22,2 14,1 5 3 SW 1013,5 15 -
25.09.2020 02:00:00 22,0 14,4 0 0 N 1013,8 15 -
25.09.2020 01:00:00 22,6 16,2 0 0 N 1014,3 15 -
25.09.2020 00:00:00 22,8 16,6 0 0 N 1014,5 15 -

tt = temperature
td = dewpoint
ff = wind speed
dd = wind direction
ppp = reduced air pressure
vv = visibility
sd = sunshine duration

Next stations